This is the latest recevied weather packets stored in our database for station/object KI4BIY. If no packets are shown the sender has not sent any weather packets the latest 10 day(s).
| Time | Temp. | Humidity | Pressure | Rain* | Wind** | Luminosity | Snow |
|---|---|---|---|---|---|---|---|
| 1777496346 | 18.89° C | 81% | 1013.1 hPa | 0 mm | - | 104 W/m² | - |
| 1777496042 | 18.89° C | 85% | 1013.1 hPa | 0 mm | - | 129 W/m² | - |
| 1777495738 | 18.89° C | 86% | 1013.4 hPa | 0 mm | - | 119 W/m² | - |
| 1777495435 | 18.89° C | 85% | 1013.4 hPa | 0 mm | - | 153 W/m² | - |
| 1777495130 | 18.89° C | 86% | 1013.1 hPa | 0 mm | - | 121 W/m² | - |
| 1777494828 | 18.89° C | 80% | 1013.5 hPa | 0 mm | - | 124 W/m² | - |
| 1777494525 | 18.89° C | 83% | 1013.6 hPa | 0 mm | - | 127 W/m² | - |
| 1777494223 | 18.89° C | 84% | 1013.7 hPa | 0 mm | - | 177 W/m² | - |
| 1777493919 | 18.89° C | 82% | 1013.8 hPa | 0 mm | - | 143 W/m² | - |
| 1777493618 | 18.89° C | 84% | 1014.1 hPa | 0 mm | - | 151 W/m² | - |
| 1777493315 | 18.89° C | 82% | 1013.9 hPa | 0 mm | - | 139 W/m² | - |
| 1777493011 | 18.89° C | 86% | 1013.9 hPa | 0 mm | - | 191 W/m² | - |
| 1777492708 | 18.33° C | 89% | 1014.2 hPa | 0 mm | - | 416 W/m² | - |
| 1777492407 | 18.33° C | 90% | 1014.2 hPa | 0 mm | - | 190 W/m² | - |
| 1777492106 | 17.78° C | 90% | 1014.4 hPa | 0 mm | - | 139 W/m² | - |
| 1777491802 | 17.78° C | 91% | 1014.5 hPa | 0 mm | - | 134 W/m² | - |
| 1777491498 | 17.78° C | 90% | 1014.3 hPa | 0 mm | - | 78 W/m² | - |
| 1777491196 | 18.33° C | 92% | 1014.6 hPa | 0 mm | - | 104 W/m² | - |
| 1777490892 | 17.78° C | 91% | 1014.4 hPa | 0 mm | - | 175 W/m² | - |
| 1777490588 | 17.22° C | 94% | 1014.3 hPa | 0 mm | - | 167 W/m² | - |
| 1777490284 | 17.22° C | 94% | 1014.3 hPa | 0 mm | - | 117 W/m² | - |
| 1777489982 | 17.22° C | 94% | 1014.6 hPa | 0 mm | - | 99 W/m² | - |
| 1777489680 | 17.22° C | 95% | 1014.6 hPa | 0 mm | - | 91 W/m² | - |
| 1777489375 | 17.22° C | 95% | 1014.4 hPa | 0 mm | - | 91 W/m² | - |
| 1777489073 | 17.22° C | 95% | 1014.5 hPa | 0 mm | - | 60 W/m² | - |
* Rain latest hour (hover to see other rain measurements)
** Current wind speed in m/s (hover to see current wind gust speed)